Weather History for Denver, CO

Change the Weather History Date:

Friday, August 2, 2013

  Actual Average (KDEN) Record (KDEN)
Temperature  
Mean Temperature 78 °F 75 °F  
Max Temperature 93 °F 89 °F 103 °F (2008)
Min Temperature 62 °F 60 °F 50 °F (1891)
Degree Days  
Heating Degree Days 0 0  
Month to date heating degree days 0  
Since 1 June heating degree days 68  
Since 1 July heating degree days 6  
Cooling Degree Days 12 10  
Month to date cooling degree days 20  
Year to date cooling degree days 464  
Since 1 June cooling degree days 442  
Growing Degree Days 28 (Base 50)    
Moisture  
Dew Point 52 °F    
Average Humidity 57    
Maximum Humidity 77    
Minimum Humidity 17    
Precipitation  
Precipitation 0.00 in 0.07 in 1.52 in (1951)
Month to date precipitation 0.14  
Year to date precipitation 9.81  
Snow  
Snow 0.00 in - - ()
Month to date snowfall  
Since 1 June snowfall  
Since 1 July snowfall  
Snow Depth -    
Sea Level Pressure  
Sea Level Pressure 30.06 in    
Wind  
Wind Speed 6 mph (WSW)    
Max Wind Speed 9 mph    
Max Gust Speed 18 mph    
Visibility 10 miles    
Events      
T = Trace of Precipitation, MM = Missing Value Source: NWS Daily Summary

Daily Weather History Graph

Daily Weather History Graph

Search for Another Location

Airport:

Trip Planner

Search our weather history database for the weather conditions in past years. The results will help you decide how hot, cold, wet, or windy it might be!

Date:

Astronomy

Aug. 02, 2013 Rise Set
Actual Time 5:58 AM MDT 8:09 PM MDT
Civil Twilight 5:28 AM MDT 8:39 PM MDT
Nautical Twilight 4:51 AM MDT 9:16 PM MDT
Astronomical Twilight 4:10 AM MDT 9:56 PM MDT
Moon 2:21 AM MDT (8/2) 5:09 PM MDT (8/2)
Length of Visible Light 15h 11m
Length of Day
14h 11m
Waning Crescent, 15% of the Moon is Illuminated
Aug 2
Waning Crescent
Aug 6
New
Aug 14
First Quarter
Aug 20
Full
Aug 28
Last Quarter

Hourly Weather History & Observations

Time (MDT) Temp. Dew Point Humidity Pressure Visibility Wind Dir Wind Speed Gust Speed Precip Events Conditions
12:16 AM 64.4 °F 55.4 °F 73% 30.04 in 10.0 mi West 9.2 mph - N/A   Clear
12:36 AM 62.6 °F 55.4 °F 77% 30.04 in 10.0 mi West 8.1 mph - N/A   Clear
12:56 AM 64.4 °F 55.4 °F 73% 30.05 in 10.0 mi WSW 8.1 mph - N/A   Clear
1:16 AM 64.4 °F 53.6 °F 68% 30.04 in 10.0 mi SW 5.8 mph - N/A   Clear
1:35 AM 66.2 °F 55.4 °F 68% 30.04 in 10.0 mi WSW 8.1 mph - N/A   Clear
1:56 AM 64.4 °F 55.4 °F 73% 30.05 in 10.0 mi West 4.6 mph - N/A   Clear
2:16 AM 64.4 °F 55.4 °F 73% 30.05 in 10.0 mi WSW 5.8 mph - N/A   Clear
2:36 AM 68.0 °F 53.6 °F 60% 30.04 in 10.0 mi SW 4.6 mph - N/A   Clear
2:56 AM 66.2 °F 53.6 °F 64% 30.04 in 10.0 mi SW 4.6 mph - N/A   Clear
3:16 AM 68.0 °F 53.6 °F 60% 30.04 in 10.0 mi SW 4.6 mph - N/A   Clear
3:36 AM 68.0 °F 53.6 °F 60% 30.05 in 10.0 mi East 6.9 mph - N/A   Clear
3:56 AM 64.4 °F 53.6 °F 68% 30.05 in 10.0 mi NE 5.8 mph - N/A   Clear
4:16 AM 62.6 °F 55.4 °F 77% 30.05 in 10.0 mi NE 3.5 mph - N/A   Clear
4:36 AM 62.6 °F 55.4 °F 77% 30.05 in 10.0 mi East 4.6 mph - N/A   Clear
4:56 AM 62.6 °F 55.4 °F 77% 30.06 in 10.0 mi South 3.5 mph - N/A   Clear
5:15 AM 62.6 °F 55.4 °F 77% 30.05 in 10.0 mi SSW 5.8 mph - N/A   Clear
5:35 AM 64.4 °F 55.4 °F 73% 30.06 in 10.0 mi SW 4.6 mph - N/A   Clear
5:57 AM 62.6 °F 53.6 °F 72% 30.05 in 10.0 mi SW 5.8 mph - N/A   Clear
6:17 AM 62.6 °F 53.6 °F 72% 30.06 in 10.0 mi WSW 3.5 mph - N/A   Clear
6:37 AM 62.6 °F 53.6 °F 72% 30.06 in 10.0 mi SW 5.8 mph - N/A   Clear
6:55 AM 66.2 °F 53.6 °F 64% 30.07 in 10.0 mi WSW 5.8 mph - N/A   Clear
6:57 AM 66.2 °F 53.6 °F 64% 30.07 in 10.0 mi West 5.8 mph - N/A   Clear
7:50 AM 71.6 °F 53.6 °F 53% 30.08 in 50.0 mi SW 8.1 mph - N/A   Scattered Clouds
8:47 AM 77.0 °F 50.0 °F 39% 30.09 in 50.0 mi Calm Calm - N/A   Partly Cloudy
9:50 AM 82.4 °F 46.4 °F 28% 30.09 in 50.0 mi Calm Calm - N/A   Partly Cloudy
10:47 AM 84.2 °F 46.4 °F 27% 30.09 in 50.0 mi Calm Calm - N/A   Scattered Clouds
11:55 AM 89.6 °F 44.6 °F 21% 30.09 in 50.0 mi Variable 6.9 mph - N/A   Scattered Clouds
12:52 PM 89.6 °F 41.0 °F 18% 30.08 in 50.0 mi NNW 6.9 mph - N/A   Scattered Clouds
2:52 PM 91.4 °F 42.8 °F 18% 30.07 in 50.0 mi NE 4.6 mph - N/A   Mostly Cloudy
3:55 PM 93.2 °F 42.8 °F 17% 30.06 in 50.0 mi ENE 4.6 mph 18.4 mph N/A   Mostly Cloudy
4:52 PM 89.6 °F 41.0 °F 18% 30.06 in 50.0 mi NE 4.6 mph - N/A   Mostly Cloudy